Starlink 5280

operational
NORAD ID: 54166 Int'l Des: 2022-141 Owner: SPXS Country: US Constellation: starlink
LEOCIRCULAR

Über Starlink 5280

Beschreibung wird geladen...

Live-Position

3D-Globus wird geladen...

Nächste Überflüge

Höhenverlauf

Altitude vs Time

uPlot chart will show altitude changes over time

Zweizeiliger Elementsatz

1 54166U 22141K 25352.26655663 -.00000322 00000-0 -21358-5 0 9991
2 54166 53.2192 9.7732 0001437 92.9814 267.1342 15.08835961173565
Epoch: 18. Dez. 2025 • Age: 19 hours

Aktueller Status

Höhe 541.1 km
Geschwindigkeit 7.60 km/s
Subsatellitenpunkt 31.30°N, 79.65°W
Startdatum 28. Okt. 2022
Alter 3.1 years
Typ internet

Technische Details

Klassifizierung Payload
Masse 305.00 kg
Trockenmasse 290.00 kg
Gesamtmasse 305.00 kg
Länge 0.20 m
Durchmesser 2.80 m
Spannweite 9.00 m
Form Box + pan
Hersteller SPXS
Bus-Typ Starlink
Phasenstatus In Orbit
Besitzer/Staat SPXS/US

Große Konstellationen

Loading constellations...